ONEWEB-0085 (45438 NORAD) Tracking and Keplerian Element Data

This shows tracking and keplerian element data for the satellite.

Feedback or suggestion? Click here.




ElementValue
Catalog45438
NameONEWEB-0085
Epoch Orbit3217
Epoch Day297.91667824
Epoch Year2020
RAAN71.7031
Inclination87.793
Eccentricity0.0017988
Argument of Perigee237.5649
Mean Anonmoly291.5725
Mean Motion13.96753193
Decay Rate-0.00021864
L11 45438U 20020Q 20297.91667824 -.00021864 00000-0 -15802-1 0 9991
L22 45438 87.7930 71.7031 0017988 237.5649 291.5725 13.96753193 32179

Live tracking and technical data element details for ONEWEB-0085 (NORAD 45438). ONEWEB-0085 can be tracked NOW for your location showing map with azimuth and elevation plus other details from your city location.

Track the satellite on the map from your city or location and see movement details for azimuth, elevation, latitude, longitude, range, height, and movement on the map or in text.







IsCatalogInMostPopularTable: catalog: 45438, numindb: 58
Update: records affected: 1



GetName: 45438 ONEWEB-0085

Hit Count: updated at: Sun, 25 Oct 2020 00:04:11 GMT